Temp
-13 -13 -13 -13 -13 -13 -13 -13 -13 -13 -14 -14 -14 -14 -14 -14 -14 -14 -14 -14 -14 -14 -14 -15 -15 -15 -15 -15 -15 -15 -16 -16 -16 -16 -17 -17 -16 -17
-13 -13 -13 -13 -13 -13 -14 -14 -14 -14 -14 -14 -14 -15 -14 -14 -15 -15 -15 -15 -15 -15 -15 -15 -15 -15 -15 -15 -15 -16 -16 -16 -16 -16 -17 -17 -17 -17
-14 -14 -14 -14 -14 -14 -14 -14 -14 -14 -13 -14 -14 -14 -15 -15 -15 -15 -15 -15 -15 -15 -15 -15 -15 -15 -15 -16 -16 -16 -16 -16 -16 -17 -17 -17 -17 -17
-14 -14 -14 -14 -14 -14 -14 -14 -14 -14 -14 -14 -14 -14 -15 -15 -15 -15 -15 -15 -15 -15 -15 -15 -15 -16 -16 -16 -16 -17 -17 -16 -17 -17 -17 -17 -17 -18
-14 -14 -14 -14 -14 -14 -14 -14 -14 -14 -14 -14 -14 -14 -15 -15 -15 -15 -15 -15 -15 -15 -16 -16 -16 -16 -16 -16 -17 -17 -17 -17 -17 -18 -18 -18 -18 -18
-14 -14 -14 -14 -14 -14 -14 -14 -14 -14 -14 -14 -14 -14 -15 -15 -16 -16 -16 -16 -16 -16 -16 -16 -16 -16 -16 -17 -17 -18 -18 -17 -18 -18 -18 -18 -18 -19
-14 -14 -14 -14 -14 -14 -14 -14 -14 -14 -14 -14 -15 -15 -15 -15 -16 -16 -16 -16 -16 -16 -16 -16 -16 -17 -17 -17 -17 -18 -18 -18 -18 -18 -18 -18 -18 -19
-14 -14 -14 -14 -15 -15 -15 -15 -15 -15 -15 -15 -15 -15 -15 -16 -16 -16 -16 -16 -16 -16 -16 -17 -17 -17 -17 -17 -18 -18 -18 -18 -19 -18 -19 -18 -19 -19
-14 -14 -15 -15 -15 -15 -16 -16 -16 -16 -16 -16 -16 -16 -16 -16 -16 -16 -16 -16 -16 -17 -16 -17 -17 -17 -17 -18 -18 -18 -19 -18 -19 -19 -19 -19 -19 -20
-15 -15 -15 -15 -16 -16 -17 -16 -16 -16 -16 -16 -16 -16 -16 -16 -17 -17 -17 -17 -16 -17 -17 -17 -17 -18 -17 -18 -18 -18 -19 -19 -19 -19 -19 -19 -19 -20
-16 -16 -16 -16 -16 -17 -17 -17 -17 -16 -17 -17 -17 -17 -17 -17 -17 -17 -17 -17 -18 -17 -17 -17 -17 -19 -18 -18 -19 -19 -19 -19 -19 -19 -19 -20 -20 -20
-17 -17 -17 -17 -17 -17 -17 -17 -17 -17 -17 -17 -17 -17 -17 -17 -17 -18 -18 -18 -17 -17 -17 -18 -18 -19 -19 -19 -19 -19 -19 -20 -20 -20 -19 -20 -20 -20
-17 -17 -17 -17 -17 -18 -18 -18 -18 -17 -17 -17 -18 -18 -18 -18 -17 -18 -18 -18 -18 -18 -18 -18 -18 -19 -19 -19 -19 -20 -20 -20 -20 -20 -20 -20 -20 -20
-18 -18 -18 -18 -18 -18 -18 -18 -18 -18 -18 -18 -18 -18 -18 -18 -18 -18 -19 -19 -19 -19 -19 -19 -19 -20 -20 -20 -20 -20 -21 -20 -20 -20 -20 -20 -20 -21
-19 -19 -19 -19 -19 -19 -19 -19 -19 -19 -19 -19 -19 -19 -19 -19 -19 -19 -19 -20 -19 -19 -19 -20 -20 -20 -20 -20 -20 -21 -21 -20 -20 -20 -21 -21 -21 -21
-19 -19 -20 -20 -20 -19 -19 -20 -20 -20 -19 -20 -20 -20 -20 -20 -20 -20 -20 -20 -20 -20 -20 -20 -20 -20 -20 -20 -21 -21 -21 -20 -20 -20 -21 -21 -21 -21
-20 -20 -20 -20 -20 -20 -20 -20 -20 -20 -20 -20 -20 -20 -20 -20 -20 -20 -20 -20 -20 -20 -20 -20 -21 -21 -21 -21 -21 -21 -21 -21 -21 -21 -21 -22 -22 -22
-20 -20 -20 -20 -20 -20 -20 -20 -20 -20 -20 -20 -20 -20 -20 -20 -20 -20 -20 -20 -20 -20 -21 -21 -22 -21 -21 -21 -21 -21 -22 -21 -21 -22 -22 -22 -22 -22
-21 -21 -21 -21 -21 -21 -21 -21 -21 -21 -20 -20 -21 -21 -21 -21 -21 -21 -21 -21 -21 -21 -21 -22 -22 -22 -22 -22 -22 -22 -22 -22 -22 -22 -22 -22 -22 -22
-23 -23 -23 -22 -22 -22 -22 -22 -21 -21 -21 -21 -21 -21 -21 -21 -21 -21 -21 -22 -22 -22 -22 -22 -22 -23 -23 -23 -23 -23 -22 -23 -23 -22 -23 -22 -23 -23
-24 -24 -24 -24 -24 -23 -23 -23 -22 -22 -22 -22 -22 -22 -22 -22 -22 -22 -22 -22 -22 -22 -23 -23 -23 -23 -23 -24 -24 -24 -23 -23 -23 -23 -23 -23 -23 -23
-25 -25 -25 -25 -25 -25 -24 -24 -24 -24 -24 -24 -24 -24 -24 -23 -23 -23 -23 -23 -23 -23 -23 -23 -24 -24 -24 -24 -24 -24 -24 -24 -24 -24 -24 -24 -25 -25
-26 -25 -25 -25 -25 -25 -25 -25 -25 -25 -25 -25 -25 -24 -24 -24 -24 -24 -24 -24 -24 -24 -24 -24 -24 -24 -25 -24 -25 -25 -25 -25 -25 -25 -25 -25 -25 -26
Height
5810 5809 5809 5807 5807 5806 5804 5803 5802 5801 5799 5798 5795 5791 5790 5787 5784 5781 5777 5773 5769 5764 5760 5755 5750 5744 5739 5733 5726 5719 5713 5706 5700 5692 5684 5676 5667 5658
5803 5802 5802 5800 5800 5799 5798 5796 5795 5793 5793 5790 5789 5785 5781 5779 5776 5772 5769 5765 5761 5756 5752 5746 5741 5735 5730 5724 5717 5711 5704 5698 5690 5683 5675 5666 5657 5649
5794 5793 5793 5792 5792 5791 5789 5788 5787 5784 5784 5783 5779 5778 5774 5771 5768 5764 5760 5756 5752 5747 5743 5738 5732 5726 5720 5714 5707 5701 5694 5688 5682 5674 5665 5656 5648 5638
5784 5784 5784 5782 5782 5781 5780 5778 5777 5775 5773 5773 5770 5768 5765 5762 5758 5755 5750 5746 5742 5738 5732 5728 5722 5716 5710 5703 5697 5690 5684 5678 5672 5664 5655 5647 5638 5628
5774 5773 5774 5772 5772 5771 5770 5768 5766 5764 5763 5761 5759 5757 5755 5752 5748 5744 5740 5735 5731 5727 5722 5717 5711 5706 5699 5692 5686 5679 5674 5668 5661 5654 5646 5637 5628 5619
5763 5763 5763 5762 5761 5759 5758 5757 5754 5752 5750 5749 5747 5745 5743 5741 5736 5732 5728 5724 5720 5715 5710 5705 5700 5694 5689 5681 5675 5669 5663 5657 5651 5644 5635 5627 5618 5609
5752 5751 5751 5749 5748 5747 5744 5744 5741 5739 5737 5736 5735 5732 5731 5728 5723 5720 5716 5712 5708 5703 5698 5692 5687 5683 5677 5670 5664 5658 5653 5646 5641 5633 5625 5617 5607 5599
5738 5738 5737 5736 5735 5733 5731 5729 5727 5725 5723 5720 5720 5718 5718 5713 5711 5707 5704 5698 5694 5692 5685 5679 5675 5670 5665 5659 5653 5648 5642 5635 5629 5622 5614 5605 5597 5589
5724 5723 5722 5721 5720 5718 5717 5715 5713 5709 5708 5705 5704 5704 5701 5699 5695 5692 5689 5683 5679 5675 5670 5667 5661 5658 5652 5648 5642 5635 5630 5624 5618 5610 5602 5594 5586 5579
5707 5707 5706 5706 5704 5702 5700 5698 5698 5696 5694 5689 5687 5687 5684 5682 5678 5675 5672 5669 5665 5661 5656 5652 5650 5645 5640 5635 5630 5624 5618 5612 5605 5598 5590 5582 5574 5568
5690 5689 5689 5688 5688 5685 5682 5682 5681 5681 5679 5677 5673 5670 5667 5665 5662 5658 5656 5652 5651 5648 5643 5638 5636 5632 5626 5621 5616 5611 5606 5600 5593 5586 5578 5571 5563 5558
5673 5672 5670 5669 5668 5666 5663 5663 5663 5665 5661 5658 5657 5655 5652 5649 5646 5643 5638 5635 5633 5631 5629 5625 5620 5614 5612 5609 5603 5598 5593 5587 5580 5572 5566 5560 5554 5548
5652 5652 5651 5649 5648 5646 5645 5644 5645 5643 5643 5641 5639 5637 5635 5631 5628 5625 5621 5619 5616 5614 5612 5608 5606 5601 5597 5593 5590 5585 5578 5572 5567 5561 5554 5548 5543 5536
5631 5632 5631 5630 5629 5627 5626 5625 5624 5622 5623 5622 5620 5619 5616 5613 5611 5609 5605 5604 5602 5600 5596 5593 5590 5586 5582 5578 5575 5569 5565 5560 5555 5549 5543 5537 5532 5526
5609 5610 5610 5611 5609 5608 5606 5604 5603 5601 5602 5601 5600 5599 5598 5595 5594 5592 5589 5587 5585 5583 5580 5577 5573 5569 5566 5564 5560 5556 5551 5548 5543 5537 5532 5526 5521 5516
5586 5587 5588 5587 5588 5588 5586 5585 5583 5582 5582 5582 5582 5580 5579 5577 5575 5573 5570 5568 5565 5563 5562 5558 5555 5552 5550 5546 5545 5542 5539 5535 5529 5525 5520 5515 5509 5504
5564 5565 5565 5565 5565 5564 5563 5563 5562 5561 5561 5561 5560 5559 5557 5555 5554 5552 5550 5548 5547 5545 5543 5539 5538 5536 5534 5532 5530 5527 5523 5520 5516 5511 5507 5502 5496 5492
5541 5541 5541 5540 5540 5540 5539 5539 5538 5537 5537 5537 5537 5536 5534 5533 5532 5531 5530 5528 5527 5526 5525 5523 5522 5521 5520 5518 5516 5512 5508 5505 5502 5498 5493 5489 5485 5481
5514 5514 5515 5514 5514 5514 5514 5513 5513 5513 5513 5514 5514 5514 5512 5512 5512 5511 5510 5510 5509 5509 5508 5506 5505 5504 5503 5501 5499 5496 5492 5489 5486 5483 5480 5475 5473 5468
5490 5489 5490 5489 5489 5490 5490 5490 5489 5489 5489 5490 5491 5492 5491 5490 5491 5491 5490 5490 5490 5490 5488 5487 5486 5485 5484 5483 5482 5480 5478 5475 5473 5468 5466 5462 5461 5457
5467 5466 5465 5465 5465 5464 5464 5465 5465 5465 5465 5466 5467 5467 5468 5467 5468 5469 5469 5469 5469 5469 5468 5467 5466 5466 5466 5465 5464 5463 5461 5458 5455 5453 5451 5450 5447 5444
5443 5443 5443 5442 5442 5441 5442 5442 5442 5442 5442 5442 5443 5444 5445 5445 5446 5447 5447 5447 5447 5448 5449 5448 5448 5448 5447 5447 5446 5446 5445 5443 5441 5439 5436 5436 5434 5432
5414 5415 5416 5417 5417 5417 5418 5419 5419 5419 5420 5421 5422 5423 5424 5425 5426 5427 5428 5428 5430 5431 5432 5431 5431 5431 5431 5431 5431 5430 5429 5430 5427 5427 5425 5422 5421 5422
Wind_Speed
26 25 24 25 24 25 25 26 27 27 28 28 32 34 34 35 37 38 39 40 43 43 44 46 48 51 53 54 57 57 55 57 60 64 62 64 68 63
31 31 30 31 31 31 31 32 33 34 33 35 34 36 39 39 40 42 42 44 45 47 47 49 51 54 55 55 57 57 55 57 59 61 62 66 68 65
36 36 36 37 36 36 36 37 38 41 41 39 42 39 42 43 43 45 46 48 48 49 50 51 54 55 57 57 58 59 59 59 61 58 63 67 68 65
41 41 40 41 41 42 42 42 43 44 46 45 45 45 45 46 48 47 49 51 51 52 54 55 56 57 59 59 60 59 57 62 61 59 62 66 64 66
45 45 45 46 46 46 46 46 47 49 50 51 50 51 49 49 50 52 53 54 54 56 57 58 58 60 60 61 62 62 59 62 59 58 64 64 65 67
47 48 48 49 49 50 51 51 52 54 55 55 55 55 54 52 53 53 56 57 58 59 60 62 64 59 64 65 62 59 55 61 58 58 63 65 66 65
52 52 53 54 55 55 57 57 58 59 60 60 59 58 57 56 56 59 58 60 60 61 64 65 60 58 61 56 60 54 61 56 59 62 62 66 68 63
58 58 58 59 60 61 61 61 63 62 62 62 61 61 59 60 59 62 62 62 66 63 65 68 64 64 62 59 62 65 64 61 63 61 66 67 67 56
64 64 64 64 63 63 63 63 63 65 64 64 64 64 64 64 66 66 66 70 69 65 66 68 64 64 69 61 61 56 60 63 64 63 65 65 64 56
68 67 66 65 65 63 63 65 66 67 68 69 70 70 70 70 70 72 70 66 64 72 62 60 67 64 60 64 58 62 66 65 63 64 63 65 61 51
70 70 71 70 69 70 71 71 71 71 72 72 73 75 74 73 70 68 66 67 61 67 67 62 65 62 60 56 63 66 63 64 67 68 62 60 51 53
73 73 73 75 74 76 78 77 76 74 75 76 75 74 73 73 72 71 70 66 64 64 64 66 60 55 59 66 66 63 63 65 62 59 58 58 53 53
82 81 82 82 82 79 78 78 77 76 74 74 74 75 75 74 72 69 68 68 67 65 64 63 61 65 64 63 62 65 65 63 58 53 55 52 53 51
79 79 78 78 78 78 78 79 79 80 80 79 76 71 66 65 67 68 65 65 64 63 64 64 63 63 66 66 67 59 48 48 49 51 56 57 55 51
79 80 79 81 81 80 77 74 74 72 72 70 68 65 64 65 64 63 65 66 67 70 67 69 69 71 71 70 66 50 50 54 54 56 58 51 49 50
83 82 82 84 82 81 75 73 73 74 71 69 70 70 73 72 72 73 70 71 73 72 75 75 74 75 70 52 51 52 53 57 55 56 55 54 50 48
78 79 80 80 78 77 77 79 80 80 80 81 82 82 79 79 80 79 78 77 77 74 69 56 52 54 55 55 56 56 56 58 56 57 59 60 52 49
86 86 87 85 85 85 85 84 84 83 83 82 81 80 75 71 68 68 67 67 65 59 57 57 57 57 58 58 57 57 59 58 57 56 59 53 50 49
80 79 80 79 78 79 80 80 80 79 77 74 71 69 65 64 65 64 62 62 63 63 61 60 61 63 62 59 61 61 58 55 55 60 57 51 51 49
79 79 79 80 81 78 76 77 78 78 75 72 71 69 69 70 70 68 66 66 67 67 68 69 67 64 64 64 62 59 55 59 60 56 58 52 53 50
72 72 73 73 72 73 77 76 76 76 75 74 72 70 70 72 73 72 72 71 72 71 70 67 66 65 65 63 61 56 56 54 54 53 57 57 54 48
78 76 75 73 72 71 70 70 70 69 69 70 70 68 69 69 69 68 68 67 66 64 63 62 59 56 55 54 55 53 57 48 49 43 43 46 47 46
83 82 81 80 78 77 76 74 72 71 69 67 67 66 64 63 61 60 59 58 56 54 51 51 49 48 47 47 47 48 49 42 36 44 42 40 41 43
Wind_Direction
263 263 264 267 269 271 273 278 281 281 284 287 291 298 299 303 305 307 309 310 312 313 314 314 315 316 319 318 318 318 318 318 317 319 323 326 327 324
265 266 267 267 269 272 275 278 281 283 285 286 289 291 296 299 301 303 305 306 307 309 311 311 312 314 316 316 315 314 313 315 317 318 321 324 325 321
264 266 269 271 274 276 277 280 282 285 288 288 291 291 293 296 298 300 302 303 304 305 307 309 311 312 312 313 313 312 310 314 317 318 321 323 322 323
267 269 271 271 272 274 277 279 281 284 286 287 288 289 291 293 296 297 298 300 302 304 305 307 308 309 310 310 311 308 310 312 314 319 320 320 321 322
267 268 269 271 273 276 278 279 281 283 286 288 288 289 290 292 294 296 297 299 302 303 304 306 306 307 309 307 309 307 305 313 312 317 319 319 321 321
267 268 271 273 276 278 280 282 284 285 287 288 288 289 291 291 292 293 295 297 300 301 302 303 304 302 306 306 308 305 307 314 313 314 318 320 320 322
269 271 273 275 276 278 280 281 282 284 285 286 286 287 289 290 291 292 293 296 297 298 300 304 298 306 304 306 309 303 308 310 312 315 314 319 317 318
268 269 271 272 274 275 276 278 280 281 282 283 284 285 287 288 289 291 294 294 296 295 302 301 296 303 301 304 302 301 308 308 312 311 314 315 315 317
267 268 269 271 273 275 276 277 278 279 280 281 283 285 286 287 289 291 292 294 297 293 300 294 292 298 302 298 303 303 305 307 310 310 311 311 313 312
266 268 269 270 271 272 274 275 276 278 281 283 285 286 287 288 290 291 292 293 295 290 299 284 301 299 298 298 295 298 304 305 308 309 306 309 312 311
266 267 268 269 270 272 273 274 275 276 278 281 283 285 287 288 288 290 290 291 291 282 293 292 294 291 295 299 297 302 303 305 306 306 306 309 308 313
269 269 268 269 269 271 273 275 276 278 279 281 283 284 285 287 287 289 289 289 289 290 293 287 298 291 298 292 296 300 303 304 303 304 304 308 307 309
268 269 270 271 272 273 274 276 277 277 277 279 281 282 283 284 285 286 287 288 289 290 290 290 291 289 293 294 297 299 299 301 302 308 306 304 307 308
267 268 269 270 273 274 275 276 277 278 279 280 281 280 280 282 283 285 284 285 286 286 288 289 290 290 291 292 295 298 306 304 304 305 305 306 304 306
269 269 270 271 271 273 274 274 274 275 276 277 277 277 279 279 280 280 281 283 283 286 285 287 288 288 288 290 294 295 303 299 301 301 303 304 308 301
272 271 270 271 272 272 270 271 272 273 274 276 277 278 279 279 278 279 278 278 281 282 286 288 285 284 288 293 294 300 299 300 297 298 300 301 305 300
263 266 269 271 270 269 269 270 271 272 272 273 275 276 276 276 277 276 277 276 281 282 281 282 288 292 295 294 293 291 294 296 295 296 294 298 300 297
263 265 268 268 269 272 272 271 272 271 271 271 271 273 275 275 275 275 276 277 277 277 282 286 287 289 290 288 290 289 294 294 292 293 293 294 299 296
269 270 272 272 271 272 272 273 273 272 270 269 269 270 271 273 274 276 278 280 281 281 281 281 283 286 288 285 286 288 288 289 289 289 292 295 298 293
274 274 273 272 271 271 271 270 268 265 265 267 267 269 270 271 272 274 276 277 278 278 279 279 281 282 282 283 283 285 287 288 285 287 293 292 295 294
271 271 272 273 273 273 272 271 270 269 268 268 268 268 269 270 271 272 274 275 275 275 276 276 276 277 279 281 283 281 281 292 293 288 287 288 286 290
271 271 272 272 272 271 271 270 269 269 269 269 269 269 269 269 269 270 270 271 272 274 276 277 279 280 280 279 280 281 280 286 294 296 290 288 286 288
271 271 271 271 270 270 270 270 270 269 268 267 268 268 267 268 269 270 271 272 274 275 276 276 277 277 277 279 280 278 279 286 290 292 299 291 291 288